Regional Weather Roundup
Issued by NWS

Home | Current Version | Previous Version | Text Only | Print | Product List | Glossary On
Versions: 1 2 3 4 5 6 7 8 9 10 11 12 13 14 15 16 17 18 19 20 21 22 23 24 25 26 27 28 29 30 31 32 33 34 35 36 37 38 39 40 41 42 43 44 45 46 47 48 49 50
000
ASUS44 KOUN 191010
RWROK

WEATHER ROUNDUP FOR OKLAHOMA
NATIONAL WEATHER SERVICE NORMAN OK
400 AM CST FRI DEC 19 2014

NOTE: "FAIR" INDICATES FEW OR NO CLOUDS BELOW 12,000 FEET WITH NO
      SIGNIFICANT WEATHER AND/OR OBSTRUCTIONS TO VISIBILITY.

OKZ001>007-009>012-014-015-017-191100-
NORTHWEST OKLAHOMA AND THE PANHANDLE

CITY           SKY/WX    TMP DP  RH WIND       PRES   REMARKS
GAGE           FOG       36  35  96 NE6       30.16F VSB 1/2 WCI  31
ENID/WOODRING  CLOUDY    36  34  93 N12       30.19F WCI  27
$$

OKZ016-021>023-033>039-044-045-191100-
SOUTHWEST OKLAHOMA

CITY           SKY/WX    TMP DP  RH WIND       PRES   REMARKS
LAWTON/REGL    CLOUDY    42  40  92 NE8       30.17S
LAWTON/FT SILL CLOUDY    41  41 100 NE8       30.15S FOG
FREDERICK      CLOUDY    42  39  89 N7        30.15R
CLINTON        FOG       38  36  92 NE7       30.18S VSB 1   WCI  33
HOBART         CLOUDY    39  37  92 NE8       30.18R FOG     WCI  33
ALTUS AFB      CLOUDY    41  41 100 N7        30.18S
$$

OKZ018>020-024>031-191100-
CENTRAL OKLAHOMA

CITY           SKY/WX    TMP DP  RH WIND       PRES   REMARKS
OKLAHOMA CITY  FOG       40  37  89 N8        30.17S VSB 3/4 WCI  34
OKC/WILEY POST FOG       38  37  97 N12       30.18F VSB 1/4 WCI  30
OKC/TINKER AFB DRIZZLE   39  37  93 NE6       30.18R FOG     WCI  35
STILLWATER     CLOUDY    37  33  85 NE6       30.21F WCI  32
GUTHRIE        CLOUDY    37  36  96 N6        30.19F FOG     WCI  32
$$

OKZ008-013-054>072-191100-
NORTHEAST OKLAHOMA

CITY           SKY/WX    TMP DP  RH WIND       PRES   REMARKS
TULSA          CLOUDY    38  37  97 N9        30.22F FOG     WCI  31
TULSA/JONES    CLOUDY    38  37  97 N8        30.22F FOG     WCI  32
PONCA CITY     CLOUDY    35  32  88 N8        30.22F FOG     WCI  29
BARTLESVILLE   CLOUDY    35  33  92 CALM      30.25S
MUSKOGEE       CLOUDY    41  39  93 N8        30.22S FOG
$$

OKZ032-040>043-046>053-073>077-191100-
SOUTH CENTRAL/SOUTHEAST OKLAHOMA

CITY           SKY/WX    TMP DP  RH WIND       PRES   REMARKS
ARDMORE/DWNTWN CLOUDY    43  41  93 E6        30.18S
MCALESTER      CLOUDY    43  39  86 NE5       30.20R
$$



USA.gov is the U.S. government's official web portal to all federal, state and local government web resources and services.